Showing default

E-KAGAKU-1, 65942

Orbit data source: Space-Track

E-KAGAKU-1, 65942 is a Japanese payload satellite in LEO that was delivered to the ISS. Payload-class satellites include a variety of spacecraft equipped with specific instruments for various scientific and technological missions. These include communications satellites like Starlink; space stations such as the ISS; scientific satellites like the Hubble; Earth observation satellites from companies like Planet Labs, Umbra, and HawkEye 360; GPS; miniature CubeSats for education and research; and military/defense satellites.

Loading next visibility...
Identifier
65942, 1998-067XP
Orbit
LEO
Country
Flag of JPJP / JPN
Related business
Manufacturer
EKAG
Mission
Operational spacecraft
Bus & Motor
CUBESAT 1U, Unknown motor
Mass
1 kg wet, 1 kg dry
Launch date (UTC)
1998-11-20 (27 years ago)
Launch vehicle
FALCON 9
Launch site
Tyuratam Missile And Space Complex (TTMTR)
Object type
Payload
Rocket body
Debris
Shape & HBR
Unknown shape, 0.1 m
Radar Cross Section
RCS unknown

Expand to show TLE details & history
Last TLE update: 8 hours ago

TLE from 8 hours ago
0 E-KAGAKU-1
1 65942U 98067XP  25352.27908635  .00110248  00000-0  11339-2 0  9998
2 65942  51.6279 111.2842 0002845 286.3286  73.7396 15.64025211 10734
Epoch: 2025-12-18T06:41Z
TLE epoch observation values (Epoch: 2025-12-18T06:41:53.060Z)
Latitude
-0.00001°
Longitude
-76.32377°
Altitude
376.251 km
Speed
7.686 km/s
True Right ascension
07h 25m 08s
True Declination
0° 00' 00"
Sunlit
Object was in full shadow at epoch
Visualization orbit readout
Latitude
Unknown
Longitude
Unknown
Altitude
Unknown
Speed
Unknown
Apparent Right ascension
Unknown
Apparent Declination
Unknown
Sunlit
N/A
Visualization observer readout
Local Sidereal Time
13:47:06
Azimuth
Unknown
Elevation
Unknown
Doppler factor
Unknown
Orbital elements
Apogee altitude
378.478 km
Perigee altitude
374.635 km
Semi-major axis
6,754.694 km
Eccentricity
0.00028
Inclination
51.6279°
RAAN
111.2842°
Arg. of periapsis
286.3286°
True anomaly
73.7709°
Mean anomaly
73.7396°
Eccentric anomaly
73.75525°
Mean motion
3.90962 °/min
Orbital period
92.08 mins
BSTAR
0.0011339
Loading maneuver chart data...
Computing Atmospheric mass density...

Documentation

Showing up to 5 results
|